• In Russia
  • List of Countries
  • For 7 days
  • Water Temperature
  • Satellite Maps
  • Weather Map
  • Weather Widgets
  • user-avatar
    Login

    Hourly Weather Tugnuy

    Today, 20 July, Friday

    Time Temperature Precipitation Wind Pressure Humidity
    00:00 +18°C° 0 mm 2 mps 698 mmHg 90%
    01:00 +18°C° 0 mm 2 mps 698 mmHg 93%
    02:00 +17°C° 0 mm 2 mps 698 mmHg 94%
    03:00 +17°C° 0 mm 2 mps 698 mmHg 95%
    04:00 +17°C° 0 mm 2 mps 697 mmHg 95%
    05:00 +18°C° 0.1 mm 2 mps 697 mmHg 89%
    06:00 +20°C° 0.1 mm 2 mps 697 mmHg 83%
    07:00 +21°C° 0.1 mm 2 mps 698 mmHg 77%
    08:00 +23°C° 0.2 mm 2 mps 698 mmHg 75%
    09:00 +24°C° 0.2 mm 2 mps 698 mmHg 72%
    10:00 +25°C° 0.2 mm 2 mps 698 mmHg 69%
    11:00 +25°C° 0.7 mm 2 mps 697 mmHg 72%
    12:00 +25°C° 0.7 mm 1 mps 697 mmHg 75%
    13:00 +25°C° 0.7 mm 1 mps 697 mmHg 78%
    14:00 +25°C° 0.6 mm 1 mps 697 mmHg 79%
    15:00 +24°C° 0.6 mm 1 mps 697 mmHg 80%
    16:00 +24°C° 0.6 mm 1 mps 697 mmHg 81%
    17:00 +24°C° 0.7 mm 1 mps 696 mmHg 83%
    18:00 +23°C° 0.7 mm 1 mps 696 mmHg 85%
    19:00 +23°C° 0.7 mm 1 mps 696 mmHg 87%
    20:00 +22°C° 0.2 mm 1 mps 696 mmHg 89%
    21:00 +21°C° 0.2 mm 1 mps 696 mmHg 91%
    22:00 +20°C° 0.2 mm 1 mps 696 mmHg 93%
    23:00 +19°C° 0.1 mm 1 mps 696 mmHg 94%

    Tomorrow, 21 July, Saturday

    Time Temperature Precipitation Wind Pressure Humidity
    00:00 +19°C° 0.1 mm 1 mps 696 mmHg 95%
    01:00 +17°C° 0.1 mm 2 mps 696 mmHg 96%
    02:00 +17°C° 0.1 mm 2 mps 696 mmHg 96%
    03:00 +17°C° 0.1 mm 2 mps 696 mmHg 95%
    04:00 +16°C° 0.1 mm 2 mps 696 mmHg 95%
    05:00 +17°C° 0.2 mm 2 mps 696 mmHg 93%
    06:00 +17°C° 0.2 mm 3 mps 697 mmHg 90%
    07:00 +17°C° 0.2 mm 3 mps 697 mmHg 87%
    08:00 +18°C° 0 mm 3 mps 697 mmHg 82%
    09:00 +19°C° 0 mm 4 mps 698 mmHg 77%
    10:00 +20°C° 0 mm 4 mps 698 mmHg 72%
    11:00 +20°C° 0 mm 5 mps 698 mmHg 71%
    12:00 +20°C° 0 mm 5 mps 698 mmHg 69%
    13:00 +20°C° 0 mm 6 mps 699 mmHg 68%
    14:00 +19°C° 0 mm 6 mps 699 mmHg 71%
    15:00 +17°C° 0 mm 6 mps 699 mmHg 73%
    16:00 +17°C° 0 mm 6 mps 699 mmHg 75%
    17:00 +16°C° 0.1 mm 5 mps 699 mmHg 78%
    18:00 +15°C° 0.1 mm 5 mps 699 mmHg 80%
    19:00 +15°C° 0.1 mm 4 mps 700 mmHg 83%
    20:00 +14°C° 0.2 mm 4 mps 700 mmHg 85%
    21:00 +14°C° 0.2 mm 4 mps 700 mmHg 87%
    22:00 +13°C° 0.2 mm 4 mps 701 mmHg 89%
    23:00 +13°C° 0.2 mm 4 mps 701 mmHg 89%

    Day after tomorrow, 22 July, Sunday

    Time Temperature Precipitation Wind Pressure Humidity
    00:00 +13°C° 0.2 mm 5 mps 701 mmHg 90%
    01:00 +13°C° 0.2 mm 5 mps 701 mmHg 90%
    02:00 +12°C° 0.1 mm 5 mps 702 mmHg 90%
    03:00 +12°C° 0.1 mm 4 mps 702 mmHg 90%
    04:00 +12°C° 0.1 mm 4 mps 703 mmHg 91%
    05:00 +13°C° 0 mm 4 mps 703 mmHg 87%
    06:00 +13°C° 0 mm 4 mps 704 mmHg 84%
    07:00 +14°C° 0 mm 4 mps 704 mmHg 80%
    08:00 +17°C° 0 mm 4 mps 705 mmHg 71%
    09:00 +18°C° 0 mm 4 mps 705 mmHg 62%
    10:00 +20°C° 0 mm 4 mps 705 mmHg 53%
    11:00 +21°C° 0 mm 4 mps 705 mmHg 49%
    12:00 +23°C° 0 mm 4 mps 705 mmHg 45%
    13:00 +25°C° 0 mm 4 mps 705 mmHg 41%
    14:00 +25°C° 0 mm 3 mps 705 mmHg 40%
    15:00 +25°C° 0 mm 3 mps 705 mmHg 39%
    16:00 +26°C° 0 mm 3 mps 704 mmHg 37%
    17:00 +24°C° 0 mm 2 mps 704 mmHg 43%
    18:00 +23°C° 0 mm 2 mps 704 mmHg 49%
    19:00 +21°C° 0 mm 1 mps 704 mmHg 55%
    20:00 +19°C° 0 mm 1 mps 704 mmHg 60%
    21:00 +18°C° 0 mm 1 mps 704 mmHg 65%
    22:00 +15°C° 0 mm 1 mps 704 mmHg 70%
    23:00 +14°C° 0 mm 1 mps 704 mmHg 71%

    23 July, Monday

    Time Temperature Precipitation Wind Pressure Humidity
    00:00 +14°C° 0 mm 1 mps 704 mmHg 73%
    01:00 +13°C° 0 mm 1 mps 704 mmHg 74%
    02:00 +13°C° 0 mm 1 mps 704 mmHg 75%
    03:00 +13°C° 0 mm 1 mps 703 mmHg 76%
    04:00 +13°C° 0 mm 1 mps 703 mmHg 77%
    05:00 +15°C° 0 mm 1 mps 703 mmHg 70%
    06:00 +18°C° 0 mm 1 mps 704 mmHg 63%
    07:00 +20°C° 0 mm 1 mps 704 mmHg 55%
    08:00 +23°C° 0 mm 1 mps 704 mmHg 49%
    09:00 +25°C° 0 mm 2 mps 704 mmHg 43%
    10:00 +27°C° 0 mm 2 mps 704 mmHg 37%
    11:00 +28°C° 0 mm 2 mps 703 mmHg 34%
    12:00 +30°C° 0 mm 2 mps 703 mmHg 31%
    13:00 +31°C° 0 mm 2 mps 703 mmHg 28%
    14:00 +31°C° 0 mm 1 mps 703 mmHg 28%
    15:00 +31°C° 0 mm 1 mps 702 mmHg 28%
    16:00 +31°C° 0 mm 1 mps 702 mmHg 29%
    17:00 +29°C° 0 mm 1 mps 702 mmHg 35%
    18:00 +27°C° 0 mm 1 mps 702 mmHg 42%
    19:00 +25°C° 0 mm 1 mps 702 mmHg 48%
    20:00 +23°C° 0 mm 1 mps 702 mmHg 54%
    21:00 +21°C° 0 mm 1 mps 701 mmHg 59%
    22:00 +19°C° 0 mm 1 mps 701 mmHg 65%
    23:00 +19°C° 0 mm 1 mps 701 mmHg 67%

    24 July, Tuesday

    Time Temperature Precipitation Wind Pressure Humidity
    00:00 +18°C° 0 mm 1 mps 701 mmHg 70%
    01:00 +18°C° 0 mm 1 mps 701 mmHg 72%
    02:00 +16°C° 0 mm 1 mps 701 mmHg 73%
    03:00 +16°C° 0 mm 1 mps 701 mmHg 75%
    04:00 +16°C° 0 mm 1 mps 701 mmHg 76%
    05:00 +19°C° 0 mm 1 mps 701 mmHg 69%
    06:00 +21°C° 0 mm 1 mps 702 mmHg 63%
    07:00 +23°C° 0 mm 1 mps 702 mmHg 56%
    08:00 +25°C° 0 mm 2 mps 702 mmHg 50%
    09:00 +27°C° 0 mm 2 mps 702 mmHg 43%
    10:00 +30°C° 0 mm 2 mps 702 mmHg 37%
    11:00 +31°C° 0 mm 2 mps 702 mmHg 35%
    12:00 +32°C° 0 mm 2 mps 701 mmHg 33%
    13:00 +34°C° 0 mm 2 mps 701 mmHg 31%
    14:00 +34°C° 0 mm 2 mps 701 mmHg 31%
    15:00 +33°C° 0 mm 1 mps 701 mmHg 31%
    16:00 +33°C° 0 mm 1 mps 701 mmHg 31%
    17:00 +31°C° 0 mm 1 mps 701 mmHg 38%
    18:00 +29°C° 0 mm 1 mps 700 mmHg 45%
    19:00 +27°C° 0 mm 2 mps 700 mmHg 52%
    20:00 +25°C° 0.3 mm 1 mps 700 mmHg 57%
    21:00 +23°C° 0.3 mm 1 mps 700 mmHg 62%
    22:00 +21°C° 0.3 mm 1 mps 700 mmHg 67%
    23:00 +20°C° 0 mm 1 mps 700 mmHg 68%

    25 July, Wednesday

    Time Temperature Precipitation Wind Pressure Humidity
    00:00 +20°C° 0 mm 1 mps 700 mmHg 68%
    01:00 +19°C° 0 mm 1 mps 700 mmHg 69%
    02:00 +19°C° 0.2 mm 1 mps 700 mmHg 70%
    03:00 +18°C° 0.2 mm 1 mps 700 mmHg 72%
    04:00 +16°C° 0.2 mm 0 mps 700 mmHg 73%
    05:00 +18°C° 0 mm 0 mps 701 mmHg 68%
    06:00 +20°C° 0 mm 0 mps 701 mmHg 63%
    07:00 +22°C° 0 mm 0 mps 701 mmHg 57%
    08:00 +25°C° 0 mm 0 mps 701 mmHg 52%
    09:00 +27°C° 0 mm 0 mps 702 mmHg 46%
    10:00 +32°C° 0 mm 1 mps 702 mmHg 40%
    11:00 +33°C° 0 mm 1 mps 702 mmHg 38%
    12:00 +33°C° 0 mm 1 mps 702 mmHg 35%
    13:00 +34°C° 0 mm 1 mps 701 mmHg 33%
    14:00 +34°C° 0 mm 1 mps 701 mmHg 32%
    15:00 +34°C° 0 mm 1 mps 701 mmHg 32%
    16:00 +34°C° 0 mm 1 mps 701 mmHg 32%
    17:00 +32°C° 0 mm 1 mps 701 mmHg 38%
    18:00 +30°C° 0 mm 1 mps 701 mmHg 45%
    19:00 +28°C° 0 mm 1 mps 701 mmHg 51%
    20:00 +26°C° 0 mm 1 mps 700 mmHg 54%
    21:00 +25°C° 0 mm 1 mps 700 mmHg 57%
    22:00 +23°C° 0 mm 1 mps 700 mmHg 60%
    23:00 +22°C° 0 mm 1 mps 700 mmHg 61%
    Show more